Location: Ethel Rock
(53.4667°N, 4.5667°W)
Time: 01:07:32
(UTC+00:00)

Cosmos 1689 Rocket - Pass Details

Date: 24 October 2020
Orbit: 360 x 375 km, 97.5° (Epoch: 26 November)

Event Time Altitude Azimuth Distance (km) Brightness Sun altitude
Rises 06:03:14 0° 193° (SSW) 2,239 5.9 -9.4°
Reaches altitude 10° 06:05:26 10° 209° (SSW) 1,389 4.7 -9.1°
Maximum altitude 06:07:51 23° 264° (W) 865 3.3 -8.8°
Drops below altitude 10° 06:10:18 10° 320° (NW) 1,391 4.4 -8.4°
Sets 06:12:30 0° 336° (NNW) 2,244 5.6 -8.1°
